sat.trackr.live / text

‹ back to catalog

GSAT0221 (GALILEO 25)

NORAD 43564 · 2018-060A

PAYLOAD ACTIVE UNKNOWN

§ Identity

Operator
Country
ESA
Launch date
2018-07-25
Launch site
FRGUI
Launch vehicle
Mass (kg)
RCS (m²)

Purposes: earth_obs, nav

External: N2YO · Heavens-Above · Gunter

§ Orbital elements

Epoch: 2026-05-21T01:58:16.699872Z

Period
844.69 min
Inclination
57.1776°
Eccentricity
0.0003144
Mean motion
1.70475772 rev/d
Perigee alt
23,212.7 km
Apogee alt
23,231.3 km
Semi-major
29,600.1 km
B*
0.0000e+0
RAAN
342.5120°
Arg perigee
316.0402°
Mean anomaly
43.9551°
Rev number
4,870

§ Raw data

GSAT0221 (GALILEO 25)1 43564U 18060A   26141.08213773 -.00000084  00000+0  00000+0 0  99932 43564  57.1776 342.5120 0003144 316.0402  43.9551  1.70475772 48708

JSON: /api/v1/satellites/43564 · /tle

For live sub-satellite position, see the globe view (requires WebGL).

§ Visibility from observer

Set your observer location to see the next 7 days of passes ≥ 10°. The values pass through the URL so the page stays shareable.

No JS? Fill the form by hand. The geolocation button needs JavaScript.